Time,TemperatureF,DewpointF,PressureIn,WindDirection,WindDirectionDegrees,WindSpeedMPH,WindSpeedGustMPH,Humidity,HourlyPrecipIn,Conditions,Clouds,dailyrainin,SoftwareType,DateUTC
2012-08-07 00:02:00,86.1,66.4,29.97,NNE,20,4.9,4.9,52,0.00,,,0.00,VWS V13.01,2012-08-07 05:02:00,
2012-08-07 00:07:00,86.1,66.4,29.97,North,4,0.0,0.0,52,0.00,,,0.00,VWS V13.01,2012-08-07 05:07:00,
2012-08-07 00:12:00,85.9,66.3,29.97,North,6,0.0,0.0,52,0.00,,,0.00,VWS V13.01,2012-08-07 05:12:00,
2012-08-07 00:17:00,85.9,66.3,29.97,NNE,29,0.0,0.0,52,0.00,,,0.00,VWS V13.01,2012-08-07 05:17:00,
2012-08-07 00:22:00,85.6,66.0,29.97,NE,35,0.0,0.0,52,0.00,,,0.00,VWS V13.01,2012-08-07 05:22:00,
2012-08-07 00:27:00,85.4,65.8,29.97,NE,35,0.0,0.0,52,0.00,,,0.00,VWS V13.01,2012-08-07 05:27:00,
2012-08-07 00:32:00,85.0,66.6,29.97,NE,35,0.0,0.0,54,0.00,,,0.00,VWS V13.01,2012-08-07 05:32:00,
2012-08-07 00:37:00,84.9,66.9,29.97,NE,35,0.0,0.0,55,0.00,,,0.00,VWS V13.01,2012-08-07 05:37:00,
2012-08-07 00:42:00,84.9,67.4,29.97,NE,35,0.0,0.0,56,0.00,,,0.00,VWS V13.01,2012-08-07 05:42:00,
2012-08-07 00:47:00,84.9,67.4,29.97,NE,39,0.0,0.0,56,0.00,,,0.00,VWS V13.01,2012-08-07 05:47:00,
2012-08-07 00:52:00,84.9,67.4,29.97,NE,39,0.0,0.0,56,0.00,,,0.00,VWS V13.01,2012-08-07 05:52:00,
2012-08-07 00:57:00,84.9,67.4,29.97,NE,39,0.0,0.0,56,0.00,,,0.00,VWS V13.01,2012-08-07 05:57:00,
2012-08-07 01:02:00,84.9,67.4,29.97,NE,39,0.0,0.0,56,0.00,,,0.00,VWS V13.01,2012-08-07 06:02:00,
2012-08-07 01:07:00,84.7,67.3,29.97,NE,39,0.0,0.0,56,0.00,,,0.00,VWS V13.01,2012-08-07 06:07:00,
2012-08-07 01:12:00,84.7,67.8,29.97,NE,39,0.0,0.0,57,0.00,,,0.00,VWS V13.01,2012-08-07 06:12:00,
2012-08-07 01:17:00,84.5,67.6,29.97,NE,39,0.0,0.0,57,0.00,,,0.00,VWS V13.01,2012-08-07 06:17:00,
2012-08-07 01:22:00,84.3,67.4,29.97,NE,39,0.0,0.0,57,0.00,,,0.00,VWS V13.01,2012-08-07 06:22:00,
2012-08-07 01:27:00,84.3,67.9,29.97,NE,39,0.0,0.0,58,0.00,,,0.00,VWS V13.01,2012-08-07 06:27:00,
2012-08-07 01:32:00,84.1,67.8,29.97,NE,38,0.0,0.0,58,0.00,,,0.00,VWS V13.01,2012-08-07 06:32:00,
2012-08-07 01:37:00,84.1,67.8,29.97,NE,38,0.0,0.0,58,0.00,,,0.00,VWS V13.01,2012-08-07 06:37:00,
2012-08-07 01:42:00,84.0,67.6,29.97,NE,38,0.0,0.0,58,0.00,,,0.00,VWS V13.01,2012-08-07 06:42:00,
2012-08-07 01:47:00,84.0,68.1,29.97,NE,38,0.0,0.0,59,0.00,,,0.00,VWS V13.01,2012-08-07 06:47:00,
2012-08-07 01:52:00,83.8,67.9,29.97,NE,38,0.0,0.0,59,0.00,,,0.00,VWS V13.01,2012-08-07 06:52:00,
2012-08-07 01:57:00,83.6,68.3,29.97,NE,38,0.0,0.0,60,0.00,,,0.00,VWS V13.01,2012-08-07 06:57:00,
2012-08-07 02:02:00,83.6,68.3,29.94,NE,38,0.0,0.0,60,0.00,,,0.00,VWS V13.01,2012-08-07 07:02:00,
2012-08-07 02:07:00,83.6,68.3,29.94,NNE,29,0.0,0.0,60,0.00,,,0.00,VWS V13.01,2012-08-07 07:07:00,
2012-08-07 02:12:00,83.6,68.3,29.94,NNE,32,0.0,0.0,60,0.00,,,0.00,VWS V13.01,2012-08-07 07:12:00,
2012-08-07 02:17:00,83.4,68.6,29.94,NNE,32,0.0,0.0,61,0.00,,,0.00,VWS V13.01,2012-08-07 07:17:00,
2012-08-07 02:22:00,83.4,68.6,29.94,NNE,29,0.0,0.0,61,0.00,,,0.00,VWS V13.01,2012-08-07 07:22:00,
2012-08-07 02:27:00,83.2,68.4,29.94,NNE,29,0.0,0.0,61,0.00,,,0.00,VWS V13.01,2012-08-07 07:27:00,
2012-08-07 02:32:00,83.2,68.4,29.94,NNE,29,0.0,0.0,61,0.00,,,0.00,VWS V13.01,2012-08-07 07:32:00,
2012-08-07 02:37:00,83.2,68.4,29.94,North,359,0.0,0.0,61,0.00,,,0.00,VWS V13.01,2012-08-07 07:37:00,
2012-08-07 02:42:00,83.1,68.2,29.94,North,359,0.0,0.0,61,0.00,,,0.00,VWS V13.01,2012-08-07 07:42:00,
2012-08-07 02:47:00,82.9,68.1,29.94,North,359,0.0,0.0,61,0.00,,,0.00,VWS V13.01,2012-08-07 07:47:00,
2012-08-07 02:52:00,82.7,68.8,29.94,North,359,0.0,0.0,63,0.00,,,0.00,VWS V13.01,2012-08-07 07:52:00,
2012-08-07 02:57:00,82.5,68.7,29.94,North,359,0.0,0.0,63,0.00,,,0.00,VWS V13.01,2012-08-07 07:57:00,
2012-08-07 03:02:00,82.3,68.9,29.94,North,359,0.0,0.0,64,0.00,,,0.00,VWS V13.01,2012-08-07 08:02:00,
2012-08-07 03:07:00,82.0,68.6,29.94,North,359,0.0,0.0,64,0.00,,,0.00,VWS V13.01,2012-08-07 08:07:00,
2012-08-07 03:12:00,81.8,69.3,29.94,North,10,0.0,0.0,66,0.00,,,0.00,VWS V13.01,2012-08-07 08:12:00,
2012-08-07 03:17:00,81.6,69.6,29.94,North,8,0.0,0.0,67,0.00,,,0.00,VWS V13.01,2012-08-07 08:17:00,
2012-08-07 03:22:00,81.6,69.6,29.94,NNW,348,2.2,2.2,67,0.00,,,0.00,VWS V13.01,2012-08-07 08:22:00,
2012-08-07 03:27:00,81.6,69.6,29.94,NNE,30,0.0,2.7,67,0.00,,,0.00,VWS V13.01,2012-08-07 08:27:00,
2012-08-07 03:32:00,81.6,69.2,29.94,NNE,30,0.0,0.0,66,0.00,,,0.00,VWS V13.01,2012-08-07 08:32:00,
2012-08-07 03:37:00,81.6,69.2,29.94,NNE,20,0.0,0.0,66,0.00,,,0.00,VWS V13.01,2012-08-07 08:37:00,
2012-08-07 03:42:00,81.6,69.6,29.94,NNE,20,0.0,0.0,67,0.00,,,0.00,VWS V13.01,2012-08-07 08:42:00,
2012-08-07 03:47:00,81.6,69.6,29.94,NNE,20,0.0,0.0,67,0.00,,,0.00,VWS V13.01,2012-08-07 08:47:00,
2012-08-07 03:52:00,81.4,69.4,29.94,NNE,20,0.0,0.0,67,0.00,,,0.00,VWS V13.01,2012-08-07 08:52:00,
2012-08-07 03:57:00,81.4,69.4,29.94,NNE,20,0.0,0.0,67,0.00,,,0.00,VWS V13.01,2012-08-07 08:57:00,
2012-08-07 04:02:00,81.3,69.7,29.94,NNE,20,0.0,0.0,68,0.00,,,0.00,VWS V13.01,2012-08-07 09:02:00,
2012-08-07 04:07:00,81.3,69.7,29.94,NNE,20,0.0,0.0,68,0.00,,,0.00,VWS V13.01,2012-08-07 09:07:00,
2012-08-07 04:12:00,81.1,69.5,29.94,NNE,20,0.0,0.0,68,0.00,,,0.00,VWS V13.01,2012-08-07 09:12:00,
2012-08-07 04:17:00,81.1,69.5,29.94,NNE,20,0.0,0.0,68,0.00,,,0.00,VWS V13.01,2012-08-07 09:17:00,
2012-08-07 04:22:00,80.9,69.4,29.94,NNE,20,0.0,0.0,68,0.00,,,0.00,VWS V13.01,2012-08-07 09:22:00,
2012-08-07 04:27:00,80.7,69.2,29.94,NNE,20,0.0,0.0,68,0.00,,,0.00,VWS V13.01,2012-08-07 09:27:00,
2012-08-07 04:32:00,80.5,69.0,29.94,NNE,20,0.0,0.0,68,0.00,,,0.00,VWS V13.01,2012-08-07 09:32:00,
2012-08-07 04:37:00,80.5,69.9,29.94,NNE,20,0.0,0.0,70,0.00,,,0.00,VWS V13.01,2012-08-07 09:37:00,
2012-08-07 04:42:00,80.4,69.7,29.94,NNE,20,0.0,0.0,70,0.00,,,0.00,VWS V13.01,2012-08-07 09:42:00,
2012-08-07 04:47:00,80.4,70.1,29.94,NNE,20,0.0,0.0,71,0.00,,,0.00,VWS V13.01,2012-08-07 09:47:00,
2012-08-07 04:52:00,80.4,70.1,29.94,NNE,20,0.0,0.0,71,0.00,,,0.00,VWS V13.01,2012-08-07 09:52:00,
2012-08-07 04:57:00,80.0,69.8,29.94,NNE,20,0.0,0.0,71,0.00,,,0.00,VWS V13.01,2012-08-07 09:57:00,
2012-08-07 05:02:00,80.0,70.2,29.94,NNE,20,0.0,0.0,72,0.00,,,0.00,VWS V13.01,2012-08-07 10:02:00,
2012-08-07 05:07:00,79.8,70.4,29.94,NNE,20,0.0,0.0,73,0.00,,,0.00,VWS V13.01,2012-08-07 10:07:00,
2012-08-07 05:12:00,79.6,70.2,29.94,NNE,20,0.0,0.0,73,0.00,,,0.00,VWS V13.01,2012-08-07 10:12:00,
2012-08-07 05:17:00,79.5,70.4,29.94,NNE,20,0.0,0.0,74,0.00,,,0.00,VWS V13.01,2012-08-07 10:17:00,
2012-08-07 05:22:00,79.3,70.3,29.94,NNE,20,0.0,0.0,74,0.00,,,0.00,VWS V13.01,2012-08-07 10:22:00,
2012-08-07 05:27:00,79.1,70.5,29.94,NNE,20,0.0,0.0,75,0.00,,,0.00,VWS V13.01,2012-08-07 10:27:00,
2012-08-07 05:32:00,79.1,70.5,29.94,NNE,20,0.0,0.0,75,0.00,,,0.00,VWS V13.01,2012-08-07 10:32:00,
2012-08-07 05:37:00,78.9,70.7,29.94,NNE,20,0.0,0.0,76,0.00,,,0.00,VWS V13.01,2012-08-07 10:37:00,
2012-08-07 05:42:00,78.9,70.7,29.94,NNE,20,0.0,0.0,76,0.00,,,0.00,VWS V13.01,2012-08-07 10:42:00,
2012-08-07 05:47:00,78.7,70.9,29.94,NNE,20,0.0,0.0,77,0.00,,,0.00,VWS V13.01,2012-08-07 10:47:00,
2012-08-07 05:52:00,78.6,70.8,29.94,NNE,20,0.0,0.0,77,0.00,,,0.00,VWS V13.01,2012-08-07 10:52:00,
2012-08-07 05:57:00,78.4,71.0,29.94,NNE,20,0.0,0.0,78,0.00,,,0.00,VWS V13.01,2012-08-07 10:57:00,
2012-08-07 06:02:00,78.4,71.3,29.94,NNE,20,0.0,0.0,79,0.00,,,0.00,VWS V13.01,2012-08-07 11:02:00,
2012-08-07 06:07:00,78.2,71.2,29.94,NNE,20,0.0,0.0,79,0.00,,,0.00,VWS V13.01,2012-08-07 11:07:00,
2012-08-07 06:12:00,78.2,71.2,29.94,NNE,20,0.0,0.0,79,0.00,,,0.00,VWS V13.01,2012-08-07 11:12:00,
2012-08-07 06:17:00,78.0,71.0,29.97,NNE,20,0.0,0.0,79,0.00,,,0.00,VWS V13.01,2012-08-07 11:17:00,
2012-08-07 06:22:00,78.0,71.3,29.97,NNE,20,0.0,0.0,80,0.00,,,0.00,VWS V13.01,2012-08-07 11:22:00,
2012-08-07 06:27:00,77.8,71.2,29.97,NNE,20,0.0,0.0,80,0.00,,,0.00,VWS V13.01,2012-08-07 11:27:00,
2012-08-07 06:32:00,77.7,71.0,29.97,NNE,20,0.0,0.0,80,0.00,,,0.00,VWS V13.01,2012-08-07 11:32:00,
2012-08-07 06:37:00,77.5,70.8,29.97,NNE,20,0.0,0.0,80,0.00,,,0.00,VWS V13.01,2012-08-07 11:37:00,
2012-08-07 06:42:00,77.5,70.8,29.97,NNE,20,0.0,0.0,80,0.00,,,0.00,VWS V13.01,2012-08-07 11:42:00,
2012-08-07 06:47:00,77.5,71.2,29.97,NNE,20,0.0,0.0,81,0.00,,,0.00,VWS V13.01,2012-08-07 11:47:00,
2012-08-07 06:52:00,77.8,71.2,29.97,NNE,20,0.0,0.0,80,0.00,,,0.00,VWS V13.01,2012-08-07 11:52:00,
2012-08-07 06:57:00,78.0,71.3,29.97,NNE,20,0.0,0.0,80,0.00,,,0.00,VWS V13.01,2012-08-07 11:57:00,
2012-08-07 07:02:00,78.2,70.8,29.97,NNE,20,0.0,0.0,78,0.00,,,0.00,VWS V13.01,2012-08-07 12:02:00,
2012-08-07 07:07:00,78.4,70.6,29.97,NNE,20,0.0,0.0,77,0.00,,,0.00,VWS V13.01,2012-08-07 12:07:00,
2012-08-07 07:12:00,78.7,70.5,29.97,NNE,20,0.0,0.0,76,0.00,,,0.00,VWS V13.01,2012-08-07 12:12:00,
2012-08-07 07:17:00,78.9,70.3,29.97,NNE,20,0.0,0.0,75,0.00,,,0.00,VWS V13.01,2012-08-07 12:17:00,
2012-08-07 07:22:00,79.1,70.1,29.97,NNE,20,0.0,0.0,74,0.00,,,0.00,VWS V13.01,2012-08-07 12:22:00,
2012-08-07 07:27:00,79.5,70.1,29.97,NNE,20,0.0,0.0,73,0.00,,,0.00,VWS V13.01,2012-08-07 12:27:00,
2012-08-07 07:32:00,79.8,70.0,29.97,NNE,20,0.0,0.0,72,0.00,,,0.00,VWS V13.01,2012-08-07 12:32:00,
2012-08-07 07:37:00,80.2,69.9,29.97,NNE,20,0.0,0.0,71,0.00,,,0.00,VWS V13.01,2012-08-07 12:37:00,
2012-08-07 07:42:00,80.5,69.0,29.97,NNE,20,0.0,0.0,68,0.00,,,0.00,VWS V13.01,2012-08-07 12:42:00,
2012-08-07 07:47:00,80.9,69.4,29.97,NNE,20,0.0,0.0,68,0.00,,,0.00,VWS V13.01,2012-08-07 12:47:00,
2012-08-07 07:52:00,81.4,69.0,29.97,NE,39,0.0,0.0,66,0.00,,,0.00,VWS V13.01,2012-08-07 12:52:00,
2012-08-07 07:57:00,82.2,67.9,29.97,NE,35,0.0,2.2,62,0.00,,,0.00,VWS V13.01,2012-08-07 12:57:00,
2012-08-07 08:02:00,83.1,67.3,29.97,ENE,57,0.0,2.2,59,0.00,,,0.00,VWS V13.01,2012-08-07 13:02:00,
2012-08-07 08:07:00,83.8,66.9,29.97,NNE,22,3.6,3.6,57,0.00,,,0.00,VWS V13.01,2012-08-07 13:07:00,
2012-08-07 08:12:00,84.7,66.2,29.97,NE,49,2.7,3.1,54,0.00,,,0.00,VWS V13.01,2012-08-07 13:12:00,
2012-08-07 08:17:00,85.2,65.6,29.97,ENE,68,3.1,3.1,52,0.00,,,0.00,VWS V13.01,2012-08-07 13:17:00,
2012-08-07 08:22:00,85.8,65.6,29.97,NE,46,0.0,0.0,51,0.00,,,0.00,VWS V13.01,2012-08-07 13:22:00,
2012-08-07 08:27:00,86.3,65.5,29.97,NE,44,2.2,3.1,50,0.00,,,0.00,VWS V13.01,2012-08-07 13:27:00,
2012-08-07 08:32:00,86.8,66.0,29.97,East,82,2.7,3.6,50,0.00,,,0.00,VWS V13.01,2012-08-07 13:32:00,
2012-08-07 08:37:00,87.2,65.1,29.97,ENE,62,3.6,4.9,48,0.00,,,0.00,VWS V13.01,2012-08-07 13:37:00,
2012-08-07 08:42:00,87.4,64.7,29.97,East,83,5.4,5.4,47,0.00,,,0.00,VWS V13.01,2012-08-07 13:42:00,
2012-08-07 08:47:00,87.4,65.3,29.97,ENE,64,4.9,4.9,48,0.00,,,0.00,VWS V13.01,2012-08-07 13:47:00,
2012-08-07 08:52:00,87.6,65.5,29.97,ENE,63,3.6,3.6,48,0.00,,,0.00,VWS V13.01,2012-08-07 13:52:00,
2012-08-07 08:57:00,87.9,65.2,29.97,ESE,104,2.7,4.9,47,0.00,,,0.00,VWS V13.01,2012-08-07 13:57:00,
2012-08-07 09:02:00,88.3,65.5,29.97,ESE,106,4.0,4.0,47,0.00,,,0.00,VWS V13.01,2012-08-07 14:02:00,
2012-08-07 09:07:00,88.8,65.4,29.97,ENE,75,4.0,5.4,46,0.00,,,0.00,VWS V13.01,2012-08-07 14:07:00,
2012-08-07 09:12:00,89.2,64.4,29.97,East,85,3.1,8.3,44,0.00,,,0.00,VWS V13.01,2012-08-07 14:12:00,
2012-08-07 09:17:00,89.4,64.6,29.97,ENE,59,4.0,4.0,44,0.00,,,0.00,VWS V13.01,2012-08-07 14:17:00,
2012-08-07 09:22:00,89.7,64.3,29.97,ESE,120,4.0,5.4,43,0.00,,,0.00,VWS V13.01,2012-08-07 14:22:00,
2012-08-07 09:27:00,90.1,64.6,29.97,ENE,67,2.7,3.6,43,0.00,,,0.00,VWS V13.01,2012-08-07 14:27:00,
2012-08-07 09:32:00,90.8,64.6,29.97,North,11,0.0,2.7,42,0.00,,,0.00,VWS V13.01,2012-08-07 14:32:00,
2012-08-07 09:37:00,91.3,64.4,29.97,ESE,121,3.6,6.3,41,0.00,,,0.00,VWS V13.01,2012-08-07 14:37:00,
2012-08-07 09:42:00,91.2,64.2,29.97,ESE,118,3.1,3.6,41,0.00,,,0.00,VWS V13.01,2012-08-07 14:42:00,
2012-08-07 09:47:00,91.0,64.7,29.97,SSE,147,2.2,3.6,42,0.00,,,0.00,VWS V13.01,2012-08-07 14:47:00,
2012-08-07 09:52:00,91.0,64.0,29.97,South,176,3.6,5.4,41,0.00,,,0.00,VWS V13.01,2012-08-07 14:52:00,
2012-08-07 09:57:00,91.2,64.2,29.97,South,190,5.4,5.4,41,0.00,,,0.00,VWS V13.01,2012-08-07 14:57:00,
2012-08-07 10:02:00,91.2,64.2,29.97,ENE,71,8.1,8.1,41,0.00,,,0.00,VWS V13.01,2012-08-07 15:02:00,
2012-08-07 10:07:00,91.5,64.5,29.97,East,82,3.1,4.9,41,0.00,,,0.00,VWS V13.01,2012-08-07 15:07:00,
2012-08-07 10:12:00,91.7,64.7,29.97,NNE,12,2.7,3.1,41,0.00,,,0.00,VWS V13.01,2012-08-07 15:12:00,
2012-08-07 10:17:00,92.1,65.0,29.97,South,178,3.6,4.9,41,0.00,,,0.00,VWS V13.01,2012-08-07 15:17:00,
2012-08-07 10:22:00,92.1,65.0,29.97,ESE,102,3.1,4.0,41,0.00,,,0.00,VWS V13.01,2012-08-07 15:22:00,
2012-08-07 10:27:00,92.4,65.3,29.97,South,170,6.3,6.3,41,0.00,,,0.00,VWS V13.01,2012-08-07 15:27:00,
2012-08-07 10:32:00,92.6,64.8,29.97,SSE,147,8.1,8.1,40,0.00,,,0.00,VWS V13.01,2012-08-07 15:32:00,
2012-08-07 10:37:00,92.8,64.9,29.97,SSE,167,5.4,5.4,40,0.00,,,0.00,VWS V13.01,2012-08-07 15:37:00,
2012-08-07 10:42:00,93.0,65.1,29.97,SSE,154,5.4,5.8,40,0.00,,,0.00,VWS V13.01,2012-08-07 15:42:00,
2012-08-07 10:47:00,93.7,65.0,29.97,ESE,116,6.3,6.7,39,0.00,,,0.00,VWS V13.01,2012-08-07 15:47:00,
2012-08-07 10:52:00,93.5,64.8,29.97,NE,48,3.6,5.8,39,0.00,,,0.00,VWS V13.01,2012-08-07 15:52:00,
2012-08-07 10:57:00,93.9,65.2,29.97,South,189,3.6,8.7,39,0.00,,,0.00,VWS V13.01,2012-08-07 15:57:00,
2012-08-07 11:02:00,94.0,65.3,29.97,ESE,115,6.3,8.3,39,0.00,,,0.00,VWS V13.01,2012-08-07 16:02:00,
2012-08-07 11:07:00,93.7,65.0,29.97,ENE,69,3.6,5.8,39,0.00,,,0.00,VWS V13.01,2012-08-07 16:07:00,
2012-08-07 11:12:00,94.0,65.3,29.97,ESE,107,2.7,4.0,39,0.00,,,0.00,VWS V13.01,2012-08-07 16:12:00,
2012-08-07 11:17:00,94.8,65.2,29.97,ESE,112,4.9,7.6,38,0.00,,,0.00,VWS V13.01,2012-08-07 16:17:00,
2012-08-07 11:22:00,94.9,65.4,29.97,NE,41,2.7,4.0,38,0.00,,,0.00,VWS V13.01,2012-08-07 16:22:00,
2012-08-07 11:27:00,95.1,65.5,29.97,SE,127,5.8,8.1,38,0.00,,,0.00,VWS V13.01,2012-08-07 16:27:00,
2012-08-07 11:32:00,94.9,65.4,29.97,NNE,29,4.0,6.3,38,0.00,,,0.00,VWS V13.01,2012-08-07 16:32:00,
2012-08-07 11:37:00,95.5,65.9,29.97,East,82,3.6,8.7,38,0.00,,,0.00,VWS V13.01,2012-08-07 16:37:00,
2012-08-07 11:42:00,95.7,65.2,29.97,South,169,2.7,5.4,37,0.00,,,0.00,VWS V13.01,2012-08-07 16:42:00,
2012-08-07 11:47:00,95.8,65.4,29.97,ESE,115,6.3,6.3,37,0.00,,,0.00,VWS V13.01,2012-08-07 16:47:00,
2012-08-07 11:52:00,96.2,63.3,29.97,South,188,5.4,8.7,34,0.00,,,0.00,VWS V13.01,2012-08-07 16:52:00,
2012-08-07 11:57:00,96.2,63.3,29.97,South,169,6.3,8.1,34,0.00,,,0.00,VWS V13.01,2012-08-07 16:57:00,
2012-08-07 12:02:00,96.6,61.9,29.97,SSE,153,6.3,7.6,32,0.00,,,0.00,VWS V13.01,2012-08-07 17:02:00,
2012-08-07 12:07:00,96.7,62.9,29.97,ESE,118,3.6,3.6,33,0.00,,,0.00,VWS V13.01,2012-08-07 17:07:00,
2012-08-07 12:12:00,96.7,62.9,29.97,South,174,6.3,6.3,33,0.00,,,0.00,VWS V13.01,2012-08-07 17:12:00,
2012-08-07 12:17:00,97.3,62.5,29.97,ESE,110,4.9,6.3,32,0.00,,,0.00,VWS V13.01,2012-08-07 17:17:00,
2012-08-07 12:22:00,98.4,61.6,29.97,ENE,77,2.7,2.7,30,0.00,,,0.00,VWS V13.01,2012-08-07 17:22:00,
2012-08-07 12:27:00,98.7,61.0,29.97,SSE,168,8.1,10.5,29,0.00,,,0.00,VWS V13.01,2012-08-07 17:27:00,
2012-08-07 12:32:00,98.4,60.7,29.97,SSE,162,3.1,3.6,29,0.00,,,0.00,VWS V13.01,2012-08-07 17:32:00,
2012-08-07 12:37:00,98.2,61.5,29.97,SSE,150,6.3,6.3,30,0.00,,,0.00,VWS V13.01,2012-08-07 17:37:00,
2012-08-07 12:42:00,98.5,59.8,29.97,NNE,33,4.9,6.3,28,0.00,,,0.00,VWS V13.01,2012-08-07 17:42:00,
2012-08-07 12:47:00,99.1,59.3,29.94,East,80,4.9,6.7,27,0.00,,,0.00,VWS V13.01,2012-08-07 17:47:00,
2012-08-07 12:52:00,99.6,60.8,29.94,SSE,159,4.9,8.3,28,0.00,,,0.00,VWS V13.01,2012-08-07 17:52:00,
2012-08-07 12:57:00,100.3,60.3,29.94,ESE,103,8.3,8.3,27,0.00,,,0.00,VWS V13.01,2012-08-07 17:57:00,
2012-08-07 13:02:00,100.5,59.4,29.94,ENE,73,2.7,3.6,26,0.00,,,0.00,VWS V13.01,2012-08-07 18:02:00,
2012-08-07 13:07:00,100.9,59.7,29.94,ESE,113,4.9,7.6,26,0.00,,,0.00,VWS V13.01,2012-08-07 18:07:00,
2012-08-07 13:12:00,100.9,59.7,29.94,South,185,5.8,5.8,26,0.00,,,0.00,VWS V13.01,2012-08-07 18:12:00,
2012-08-07 13:17:00,100.7,59.6,29.94,SSE,166,7.6,7.6,26,0.00,,,0.00,VWS V13.01,2012-08-07 18:17:00,
2012-08-07 13:22:00,100.7,59.6,29.94,SW,224,3.1,3.6,26,0.00,,,0.00,VWS V13.01,2012-08-07 18:22:00,
2012-08-07 13:27:00,101.2,60.0,29.94,NNW,343,0.0,4.0,26,0.00,,,0.00,VWS V13.01,2012-08-07 18:27:00,
2012-08-07 13:32:00,101.2,56.6,29.94,South,177,6.3,8.3,23,0.00,,,0.00,VWS V13.01,2012-08-07 18:32:00,
2012-08-07 13:37:00,101.4,56.8,29.94,SSW,192,5.4,7.2,23,0.00,,,0.00,VWS V13.01,2012-08-07 18:37:00,
2012-08-07 13:42:00,101.8,57.1,29.94,WSW,239,5.8,5.8,23,0.00,,,0.00,VWS V13.01,2012-08-07 18:42:00,
2012-08-07 13:47:00,101.8,57.1,29.91,South,169,4.0,4.0,23,0.00,,,0.00,VWS V13.01,2012-08-07 18:47:00,
2012-08-07 13:52:00,102.0,57.2,29.91,South,190,8.1,8.1,23,0.00,,,0.00,VWS V13.01,2012-08-07 18:52:00,
2012-08-07 13:57:00,102.0,57.2,29.91,South,171,7.6,7.6,23,0.00,,,0.00,VWS V13.01,2012-08-07 18:57:00,
2012-08-07 14:02:00,102.3,57.5,29.91,SW,223,2.7,2.7,23,0.00,,,0.00,VWS V13.01,2012-08-07 19:02:00,
2012-08-07 14:07:00,103.4,57.2,29.91,SSE,158,0.0,2.7,22,0.00,,,0.00,VWS V13.01,2012-08-07 19:07:00,
2012-08-07 14:12:00,103.6,57.3,29.91,ESE,119,8.7,8.7,22,0.00,,,0.00,VWS V13.01,2012-08-07 19:12:00,
2012-08-07 14:17:00,102.9,58.0,29.91,South,180,4.0,4.0,23,0.00,,,0.00,VWS V13.01,2012-08-07 19:17:00,
2012-08-07 14:22:00,102.3,57.5,29.91,ESE,123,3.1,5.4,23,0.00,,,0.00,VWS V13.01,2012-08-07 19:22:00,
2012-08-07 14:27:00,102.5,57.7,29.91,SSE,162,4.0,4.0,23,0.00,,,0.00,VWS V13.01,2012-08-07 19:27:00,
2012-08-07 14:32:00,102.5,57.7,29.91,SW,227,4.9,4.9,23,0.00,,,0.00,VWS V13.01,2012-08-07 19:32:00,
2012-08-07 14:37:00,102.7,57.8,29.91,SW,220,5.8,8.3,23,0.00,,,0.00,VWS V13.01,2012-08-07 19:37:00,
2012-08-07 14:42:00,102.3,57.5,29.91,WSW,242,3.1,3.1,23,0.00,,,0.00,VWS V13.01,2012-08-07 19:42:00,
2012-08-07 14:47:00,102.3,57.5,29.91,ESE,115,3.6,5.8,23,0.00,,,0.00,VWS V13.01,2012-08-07 19:47:00,
2012-08-07 14:52:00,102.3,57.5,29.91,SSE,147,4.0,6.3,23,0.00,,,0.00,VWS V13.01,2012-08-07 19:52:00,
2012-08-07 14:57:00,102.3,57.5,29.91,SSW,193,3.6,5.4,23,0.00,,,0.00,VWS V13.01,2012-08-07 19:57:00,
2012-08-07 15:02:00,102.0,57.2,29.88,SW,219,2.7,4.5,23,0.00,,,0.00,VWS V13.01,2012-08-07 20:02:00,
2012-08-07 15:07:00,101.8,57.1,29.88,South,188,3.1,4.0,23,0.00,,,0.00,VWS V13.01,2012-08-07 20:07:00,
2012-08-07 15:13:00,102.0,57.2,29.88,South,191,3.1,5.4,23,0.00,,,0.00,VWS V13.01,2012-08-07 20:13:00,
2012-08-07 15:18:00,101.8,57.1,29.88,SW,214,8.1,8.3,23,0.00,,,0.00,VWS V13.01,2012-08-07 20:18:00,
2012-08-07 15:23:00,101.4,56.8,29.88,SSW,202,3.6,3.6,23,0.00,,,0.00,VWS V13.01,2012-08-07 20:23:00,
2012-08-07 15:28:00,101.4,56.8,29.88,SSW,197,3.6,3.6,23,0.00,,,0.00,VWS V13.01,2012-08-07 20:28:00,
2012-08-07 15:33:00,102.0,53.4,29.88,South,187,5.4,5.4,20,0.00,,,0.00,VWS V13.01,2012-08-07 20:33:00,
2012-08-07 15:38:00,102.3,53.7,29.88,SW,227,4.9,4.9,20,0.00,,,0.00,VWS V13.01,2012-08-07 20:38:00,
2012-08-07 15:43:00,102.7,54.0,29.88,WSW,243,5.4,5.4,20,0.00,,,0.00,VWS V13.01,2012-08-07 20:43:00,
2012-08-07 15:48:00,102.9,54.1,29.88,SW,215,5.4,8.7,20,0.00,,,0.00,VWS V13.01,2012-08-07 20:48:00,
2012-08-07 15:52:00,103.6,54.7,29.88,SW,234,3.1,5.8,20,0.00,,,0.00,VWS V13.01,2012-08-07 20:52:00,
2012-08-07 15:57:00,104.1,55.1,29.88,WSW,250,3.1,3.1,20,0.00,,,0.00,VWS V13.01,2012-08-07 20:57:00,
2012-08-07 16:02:00,103.8,54.8,29.88,SSE,166,6.3,6.3,20,0.00,,,0.00,VWS V13.01,2012-08-07 21:02:00,
2012-08-07 16:07:00,103.9,57.6,29.88,SW,226,4.5,5.4,22,0.00,,,0.00,VWS V13.01,2012-08-07 21:07:00,
2012-08-07 16:12:00,104.5,55.4,29.88,South,188,6.7,6.7,20,0.00,,,0.00,VWS V13.01,2012-08-07 21:12:00,
2012-08-07 16:17:00,104.3,55.3,29.88,SSW,208,5.8,5.8,20,0.00,,,0.00,VWS V13.01,2012-08-07 21:17:00,
2012-08-07 16:22:00,104.1,55.1,29.88,WNW,286,4.9,4.9,20,0.00,,,0.00,VWS V13.01,2012-08-07 21:22:00,
2012-08-07 16:27:00,103.9,55.0,29.88,WSW,242,3.6,4.9,20,0.00,,,0.00,VWS V13.01,2012-08-07 21:27:00,
2012-08-07 16:32:00,104.3,55.3,29.88,SSE,165,5.8,5.8,20,0.00,,,0.00,VWS V13.01,2012-08-07 21:32:00,
2012-08-07 16:37:00,103.9,55.0,29.88,WNW,286,0.0,3.6,20,0.00,,,0.00,VWS V13.01,2012-08-07 21:37:00,
2012-08-07 16:42:00,103.9,55.0,29.88,SW,215,0.0,5.8,20,0.00,,,0.00,VWS V13.01,2012-08-07 21:42:00,
2012-08-07 16:47:00,104.1,55.1,29.88,West,261,4.0,7.6,20,0.00,,,0.00,VWS V13.01,2012-08-07 21:47:00,
2012-08-07 16:52:00,103.9,55.0,29.88,West,270,4.0,5.8,20,0.00,,,0.00,VWS V13.01,2012-08-07 21:52:00,
2012-08-07 16:57:00,104.3,55.3,29.88,South,181,7.6,7.6,20,0.00,,,0.00,VWS V13.01,2012-08-07 21:57:00,
2012-08-07 17:03:00,104.7,55.6,29.88,South,174,7.6,7.6,20,0.00,,,0.00,VWS V13.01,2012-08-07 22:03:00,
2012-08-07 17:07:00,104.5,55.4,29.88,South,179,4.5,4.5,20,0.00,,,0.00,VWS V13.01,2012-08-07 22:07:00,
2012-08-07 17:12:00,103.9,55.0,29.88,SW,222,2.2,3.6,20,0.00,,,0.00,VWS V13.01,2012-08-07 22:12:00,
2012-08-07 17:17:00,103.9,55.0,29.88,WNW,283,2.7,3.6,20,0.00,,,0.00,VWS V13.01,2012-08-07 22:17:00,
2012-08-07 17:22:00,103.9,55.0,29.88,South,177,4.0,6.3,20,0.00,,,0.00,VWS V13.01,2012-08-07 22:22:00,
2012-08-07 17:27:00,103.4,54.5,29.88,South,177,4.0,4.0,20,0.00,,,0.00,VWS V13.01,2012-08-07 22:27:00,
2012-08-07 17:32:00,103.4,54.5,29.88,SW,233,0.0,2.7,20,0.00,,,0.00,VWS V13.01,2012-08-07 22:32:00,
2012-08-07 17:37:00,103.9,55.0,29.88,South,185,2.7,2.7,20,0.00,,,0.00,VWS V13.01,2012-08-07 22:37:00,
2012-08-07 17:42:00,104.3,55.3,29.88,SE,131,2.7,2.7,20,0.00,,,0.00,VWS V13.01,2012-08-07 22:42:00,
2012-08-07 17:47:00,104.7,55.6,29.85,East,80,2.2,4.0,20,0.00,,,0.00,VWS V13.01,2012-08-07 22:47:00,
2012-08-07 17:52:00,104.5,55.4,29.85,ESE,122,2.2,5.8,20,0.00,,,0.00,VWS V13.01,2012-08-07 22:52:00,
2012-08-07 17:57:00,103.9,55.0,29.85,ESE,122,3.6,3.6,20,0.00,,,0.00,VWS V13.01,2012-08-07 22:57:00,
2012-08-07 18:02:00,103.2,54.4,29.85,ENE,62,0.0,0.0,20,0.00,,,0.00,VWS V13.01,2012-08-07 23:02:00,
2012-08-07 18:07:00,103.0,54.2,29.85,ENE,70,0.0,0.0,20,0.00,,,0.00,VWS V13.01,2012-08-07 23:07:00,
2012-08-07 18:12:00,102.9,54.1,29.85,ENE,73,0.0,0.0,20,0.00,,,0.00,VWS V13.01,2012-08-07 23:12:00,
2012-08-07 18:17:00,102.3,53.7,29.85,SE,131,2.2,2.7,20,0.00,,,0.00,VWS V13.01,2012-08-07 23:17:00,
2012-08-07 18:22:00,102.3,53.7,29.85,SE,131,0.0,0.0,20,0.00,,,0.00,VWS V13.01,2012-08-07 23:22:00,
2012-08-07 18:27:00,102.3,53.7,29.85,SE,131,0.0,0.0,20,0.00,,,0.00,VWS V13.01,2012-08-07 23:27:00,
2012-08-07 18:32:00,102.1,53.5,29.85,SE,131,0.0,0.0,20,0.00,,,0.00,VWS V13.01,2012-08-07 23:32:00,
2012-08-07 18:37:00,101.6,53.1,29.85,SE,131,0.0,0.0,20,0.00,,,0.00,VWS V13.01,2012-08-07 23:37:00,
2012-08-07 18:42:00,101.2,54.1,29.85,SE,131,0.0,0.0,21,0.00,,,0.00,VWS V13.01,2012-08-07 23:42:00,
2012-08-07 18:47:00,100.7,56.2,29.85,SE,131,0.0,0.0,23,0.00,,,0.00,VWS V13.01,2012-08-07 23:47:00,
2012-08-07 18:52:00,100.2,55.7,29.85,SE,131,0.0,0.0,23,0.00,,,0.00,VWS V13.01,2012-08-07 23:52:00,
2012-08-07 18:57:00,100.2,55.7,29.85,SE,131,0.0,0.0,23,0.00,,,0.00,VWS V13.01,2012-08-07 23:57:00,
2012-08-07 19:02:00,100.2,55.7,29.88,SE,131,0.0,0.0,23,0.00,,,0.00,VWS V13.01,2012-08-08 00:02:00,
2012-08-07 19:07:00,100.0,55.6,29.88,SE,131,0.0,0.0,23,0.00,,,0.00,VWS V13.01,2012-08-08 00:07:00,
2012-08-07 19:12:00,100.2,55.7,29.88,SE,131,0.0,0.0,23,0.00,,,0.00,VWS V13.01,2012-08-08 00:12:00,
2012-08-07 19:17:00,100.3,55.9,29.88,SE,131,0.0,0.0,23,0.00,,,0.00,VWS V13.01,2012-08-08 00:17:00,
2012-08-07 19:22:00,100.3,55.9,29.88,SE,131,0.0,0.0,23,0.00,,,0.00,VWS V13.01,2012-08-08 00:22:00,
2012-08-07 19:27:00,100.2,55.7,29.88,SE,131,0.0,0.0,23,0.00,,,0.00,VWS V13.01,2012-08-08 00:27:00,
2012-08-07 19:32:00,99.4,56.3,29.85,East,100,0.0,0.0,24,0.00,,,0.00,VWS V13.01,2012-08-08 00:32:00,
2012-08-07 19:38:00,98.5,55.5,29.85,East,81,0.0,0.0,24,0.00,,,0.00,VWS V13.01,2012-08-08 00:38:00,
2012-08-07 19:43:00,98.2,55.2,29.85,ENE,71,0.0,0.0,24,0.00,,,0.00,VWS V13.01,2012-08-08 00:43:00,
2012-08-07 19:48:00,97.8,54.9,29.88,NE,55,0.0,0.0,24,0.00,,,0.00,VWS V13.01,2012-08-08 00:48:00,
2012-08-07 19:53:00,97.8,54.9,29.88,ENE,60,0.0,0.0,24,0.00,,,0.00,VWS V13.01,2012-08-08 00:53:00,
2012-08-07 19:58:00,97.5,54.6,29.88,ENE,60,0.0,0.0,24,0.00,,,0.00,VWS V13.01,2012-08-08 00:58:00,
2012-08-07 20:03:00,97.3,54.5,29.88,NNE,30,0.0,0.0,24,0.00,,,0.00,VWS V13.01,2012-08-08 01:03:00,
2012-08-07 20:08:00,96.9,56.4,29.88,NNE,13,0.0,0.0,26,0.00,,,0.00,VWS V13.01,2012-08-08 01:08:00,
2012-08-07 20:12:00,96.7,56.2,29.88,NNE,13,0.0,0.0,26,0.00,,,0.00,VWS V13.01,2012-08-08 01:12:00,
2012-08-07 20:18:00,96.2,55.8,29.88,NNE,13,0.0,0.0,26,0.00,,,0.00,VWS V13.01,2012-08-08 01:18:00,
2012-08-07 20:22:00,95.8,56.5,29.88,NNE,17,0.0,0.0,27,0.00,,,0.00,VWS V13.01,2012-08-08 01:22:00,
2012-08-07 20:28:00,95.5,56.2,29.88,NNE,17,0.0,0.0,27,0.00,,,0.00,VWS V13.01,2012-08-08 01:28:00,
2012-08-07 20:32:00,95.3,56.1,29.88,NNW,344,0.0,0.0,27,0.00,,,0.00,VWS V13.01,2012-08-08 01:32:00,
2012-08-07 20:37:00,94.8,55.6,29.88,NNW,344,0.0,0.0,27,0.00,,,0.00,VWS V13.01,2012-08-08 01:37:00,
2012-08-07 20:42:00,94.2,56.2,29.88,NNW,344,0.0,0.0,28,0.00,,,0.00,VWS V13.01,2012-08-08 01:42:00,
2012-08-07 20:47:00,94.2,56.2,29.88,North,1,0.0,0.0,28,0.00,,,0.00,VWS V13.01,2012-08-08 01:47:00,
2012-08-07 20:52:00,93.9,55.8,29.88,NE,34,0.0,2.7,28,0.00,,,0.00,VWS V13.01,2012-08-08 01:52:00,
2012-08-07 20:57:00,93.7,55.7,29.88,NE,34,0.0,0.0,28,0.00,,,0.00,VWS V13.01,2012-08-08 01:57:00,
2012-08-07 21:02:00,93.3,55.4,29.88,NE,34,0.0,0.0,28,0.00,,,0.00,VWS V13.01,2012-08-08 02:02:00,
2012-08-07 21:07:00,93.0,55.1,29.88,NE,34,0.0,0.0,28,0.00,,,0.00,VWS V13.01,2012-08-08 02:07:00,
2012-08-07 21:12:00,92.6,54.8,29.88,NE,34,0.0,0.0,28,0.00,,,0.00,VWS V13.01,2012-08-08 02:12:00,
2012-08-07 21:17:00,92.2,54.5,29.88,East,98,0.0,0.0,28,0.00,,,0.00,VWS V13.01,2012-08-08 02:17:00,
2012-08-07 21:22:00,92.1,54.3,29.88,East,99,2.2,3.6,28,0.00,,,0.00,VWS V13.01,2012-08-08 02:22:00,
2012-08-07 21:27:00,92.2,54.5,29.88,East,84,2.7,2.7,28,0.00,,,0.00,VWS V13.01,2012-08-08 02:27:00,
2012-08-07 21:32:00,92.6,54.8,29.91,East,101,0.0,4.0,28,0.00,,,0.00,VWS V13.01,2012-08-08 02:32:00,
2012-08-07 21:37:00,93.0,55.1,29.91,ENE,65,2.2,5.4,28,0.00,,,0.00,VWS V13.01,2012-08-08 02:37:00,
2012-08-07 21:42:00,93.3,55.4,29.91,NNE,30,5.8,5.8,28,0.00,,,0.00,VWS V13.01,2012-08-08 02:42:00,
2012-08-07 21:47:00,93.5,55.5,29.91,ENE,60,4.9,7.6,28,0.00,,,0.00,VWS V13.01,2012-08-08 02:47:00,
2012-08-07 21:52:00,93.7,55.7,29.91,NNE,26,3.6,4.0,28,0.00,,,0.00,VWS V13.01,2012-08-08 02:52:00,
2012-08-07 21:57:00,93.5,55.5,29.91,NE,56,3.6,8.3,28,0.00,,,0.00,VWS V13.01,2012-08-08 02:57:00,
2012-08-07 22:02:00,93.5,55.5,29.91,ENE,62,2.7,3.6,28,0.00,,,0.00,VWS V13.01,2012-08-08 03:02:00,
2012-08-07 22:07:00,93.1,55.2,29.91,NE,50,0.0,0.0,28,0.00,,,0.00,VWS V13.01,2012-08-08 03:07:00,
2012-08-07 22:12:00,93.0,55.1,29.91,East,99,4.0,4.9,28,0.00,,,0.00,VWS V13.01,2012-08-08 03:12:00,
2012-08-07 22:17:00,92.8,54.9,29.91,East,90,0.0,5.8,28,0.00,,,0.00,VWS V13.01,2012-08-08 03:17:00,
2012-08-07 22:22:00,92.8,54.9,29.91,NE,53,0.0,3.1,28,0.00,,,0.00,VWS V13.01,2012-08-08 03:22:00,
2012-08-07 22:27:00,92.6,54.8,29.91,NE,56,2.7,3.6,28,0.00,,,0.00,VWS V13.01,2012-08-08 03:27:00,
2012-08-07 22:32:00,92.4,54.6,29.94,NNE,33,2.7,4.0,28,0.00,,,0.00,VWS V13.01,2012-08-08 03:32:00,
2012-08-07 22:37:00,92.2,54.5,29.94,NE,56,0.0,4.0,28,0.00,,,0.00,VWS V13.01,2012-08-08 03:37:00,
2012-08-07 22:42:00,91.9,55.1,29.94,NE,49,2.7,2.7,29,0.00,,,0.00,VWS V13.01,2012-08-08 03:42:00,
2012-08-07 22:47:00,91.7,55.0,29.94,NE,39,0.0,0.0,29,0.00,,,0.00,VWS V13.01,2012-08-08 03:47:00,
2012-08-07 22:52:00,91.3,54.7,29.94,NE,53,0.0,5.4,29,0.00,,,0.00,VWS V13.01,2012-08-08 03:52:00,
2012-08-07 22:57:00,91.2,54.5,29.94,ENE,75,3.6,4.0,29,0.00,,,0.00,VWS V13.01,2012-08-08 03:57:00,
2012-08-07 23:00:00,91.2,54.5,29.94,East,83,2.2,3.1,29,0.00,,,0.00,VWS V13.01,2012-08-08 04:00:00,
2012-08-07 23:05:00,91.2,54.5,29.94,NNE,16,3.1,3.6,29,0.00,,,0.00,VWS V13.01,2012-08-08 04:05:00,
2012-08-07 23:10:00,91.0,54.3,29.94,ENE,63,2.7,3.1,29,0.00,,,0.00,VWS V13.01,2012-08-08 04:10:00,
2012-08-07 23:15:00,90.8,54.2,29.94,NE,47,2.2,3.1,29,0.00,,,0.00,VWS V13.01,2012-08-08 04:15:00,
2012-08-07 23:20:00,90.8,54.2,29.94,North,355,3.6,3.6,29,0.00,,,0.00,VWS V13.01,2012-08-08 04:20:00,
2012-08-07 23:25:00,90.6,54.0,29.94,NNE,31,2.7,2.7,29,0.00,,,0.00,VWS V13.01,2012-08-08 04:25:00,
2012-08-07 23:30:00,90.4,53.9,29.94,North,5,2.2,2.7,29,0.00,,,0.00,VWS V13.01,2012-08-08 04:30:00,
2012-08-07 23:35:00,90.3,53.7,29.94,NE,42,0.0,2.7,29,0.00,,,0.00,VWS V13.01,2012-08-08 04:35:00,
2012-08-07 23:40:00,90.1,53.6,29.94,NE,41,0.0,0.0,29,0.00,,,0.00,VWS V13.01,2012-08-08 04:40:00,
2012-08-07 23:45:00,89.9,53.4,29.94,NNE,17,0.0,0.0,29,0.00,,,0.00,VWS V13.01,2012-08-08 04:45:00,
2012-08-07 23:50:00,89.7,53.3,29.94,North,360,3.6,3.6,29,0.00,,,0.00,VWS V13.01,2012-08-08 04:50:00,
2012-08-07 23:55:00,89.5,53.1,29.94,NNE,23,2.7,2.7,29,0.00,,,0.00,VWS V13.01,2012-08-08 04:55:00,